Terug naar catalogus

SL-12 R/B(2)

ActiefGEO
NORAD 16870·ROCKET BODY·🇷🇺 Russia

Gelanceerd Jan 17, 1986 vanaf Baikonur Cosmodrome

Loading…

TLE

VersSource: Space-Track

Epoch: Sep 14, 2026, 22:20 UTC

1 16870U 86007F   26257.93110078 -.00000175  00000-0  00000-0 0  9998
2 16870  10.9218 322.0497 0031154 179.8289 185.5143  0.97801152143525

Volg SL-12 R/B(2) in realtime met AllMySat

Download on the App Store